Weather History for Bozeman, MT

Change the Weather History Date:

Tuesday, January 24, 2012

  Actual Average Record
Temperature  
Mean Temperature 20 °F 24 °F  
Max Temperature 34 °F 37 °F 60 °F (1953)
Min Temperature 5 °F 12 °F -44 °F (1969)
Degree Days  
Heating Degree Days 45    
Month to date heating degree days 924  
Since 1 July heating degree days 4085  
Cooling Degree Days 0    
Month to date cooling degree days 0  
Year to date cooling degree days 0  
Moisture  
Dew Point 12 °F    
Average Humidity 64    
Maximum Humidity 84    
Minimum Humidity 43    
Precipitation  
Precipitation 0.00 in 0.02 in 0.39 in (1948)
Month to date precipitation 0.10 0.38  
Year to date precipitation 0.10 0.38  
Snow  
Snow 0.00 in 0.10 in 8.20 in (1948)
Month to date snowfall 2.5 3.0  
Since 1 July snowfall 8.5 16.4  
Snow Depth 0.00 in    
Sea Level Pressure  
Sea Level Pressure 30.21 in    
Wind  
Wind Speed 4 mph (SSE)    
Max Wind Speed 12 mph    
Max Gust Speed 13 mph    
Visibility 10 miles    
Events      
T = Trace of Precipitation, MM = Missing Value Source: NWS Daily Summary

Daily Weather History Graph

Daily Weather History Graph

Search for Another Location

Airport:

Trip Planner

Search our weather history database for the weather conditions in past years. The results will help you decide how hot, cold, wet, or windy it might be!

Date:

Astronomy

Jan. 24, 2012 Rise Set
Actual Time 7:55 AM MST 5:18 PM MST
Civil Twilight 7:22 AM MST 5:51 PM MST
Nautical Twilight 6:46 AM MST 6:27 PM MST
Astronomical Twilight 6:11 AM MST 7:02 PM MST
Moon 8:19 AM MST (1/24) 7:22 PM MST (1/24)
Length of Visible Light 10h 28m
Length of Day
9h 23m
Waxing Crescent, 3% of the Moon is Illuminated
Jan 24
Waxing Crescent
Jan 30
First Quarter
Feb 7
Full
Feb 14
Last Quarter
Feb 21
New

Hourly Weather History & Observations

Time (MST) Temp. Windchill Dew Point Humidity Pressure Visibility Wind Dir Wind Speed Gust Speed Precip Events Conditions
12:56 AM 16.0 °F 5.3 °F 10.9 °F 81% 30.16 in 10.0 mi SSE 8.1 mph - N/A   Clear
1:56 AM 18.0 °F 6.9 °F 12.0 °F 78% 30.17 in 10.0 mi SSE 9.2 mph - N/A   Clear
2:56 AM 12.9 °F 1.6 °F 8.1 °F 81% 30.22 in 10.0 mi SSE 8.1 mph - N/A   Clear
3:56 AM 9.0 °F -3.2 °F 5.0 °F 84% 30.26 in 10.0 mi SE 8.1 mph - N/A   Clear
4:56 AM 14.0 °F 2.9 °F 8.6 °F 79% 30.11 in 10.0 mi SSE 8.1 mph - N/A   Clear
5:56 AM 8.1 °F 1.4 °F 3.9 °F 83% 30.31 in 10.0 mi West 3.5 mph - N/A   Clear
6:56 AM 6.1 °F - 1.9 °F 83% 30.34 in 10.0 mi Calm Calm - N/A   Clear
7:56 AM 7.0 °F -3.3 °F 1.9 °F 80% 30.35 in 10.0 mi ESE 5.8 mph - N/A   Clear
8:56 AM 14.0 °F 5.1 °F 8.1 °F 77% 30.33 in 10.0 mi South 5.8 mph - N/A   Clear
9:56 AM 21.0 °F 12.4 °F 10.0 °F 63% 30.35 in 10.0 mi South 6.9 mph - N/A   Clear
10:56 AM 24.1 °F 19.7 °F 12.9 °F 62% 30.31 in 10.0 mi SSE 3.5 mph - N/A   Clear
11:56 AM 27.0 °F 23.0 °F 14.0 °F 58% 30.25 in 10.0 mi South 3.5 mph - N/A   Clear
12:56 PM 32.0 °F - 15.1 °F 50% 30.24 in 10.0 mi Calm Calm - N/A   Clear
1:56 PM 33.1 °F - 14.0 °F 46% 30.19 in 10.0 mi Calm Calm - N/A   Clear
2:56 PM 34.0 °F - 14.0 °F 44% 30.18 in 10.0 mi Calm Calm - N/A   Clear
3:56 PM 33.8 °F - 17.6 °F 52% 30.02 in 10.0 mi Calm Calm - N/A   Clear
4:56 PM 30.9 °F - 17.1 °F 57% 30.20 in 10.0 mi Calm Calm - N/A   Clear
5:56 PM 28.9 °F 23.9 °F 17.1 °F 61% 30.22 in 10.0 mi SSE 4.6 mph - N/A   Clear
6:56 PM 28.0 °F 22.8 °F 16.0 °F 61% 30.21 in 10.0 mi South 4.6 mph - N/A   Mostly Cloudy
7:56 PM 28.0 °F - 15.1 °F 58% 30.18 in 10.0 mi Calm Calm - N/A   Overcast
8:56 PM 26.1 °F 20.5 °F 15.1 °F 63% 30.18 in 10.0 mi SW 4.6 mph - N/A   Clear
9:56 PM 24.1 °F 19.7 °F 14.0 °F 65% 30.17 in 10.0 mi SE 3.5 mph - N/A   Clear
10:56 PM 27.0 °F 23.0 °F 12.0 °F 53% 30.13 in 10.0 mi Variable 3.5 mph - N/A   Clear
11:56 PM 23.0 °F 15.8 °F 12.2 °F 63% 29.97 in 10.0 mi SSE 5.8 mph - N/A   Clear